Regional Weather Roundup
Issued by NWS

Home | Current Version | Previous Version | Graphics & Text | Print | Product List | Glossary On
Versions: 1 2 3 4 5 6 7 8 9 10 11 12 13 14 15 16 17 18 19 20 21 22 23 24 25 26 27 28 29 30 31 32 33 34 35 36 37 38 39 40 41 42 43 44 45 46 47 48 49 50
000
ASUS44 KMEG 112310
RWRTN
TENNESSEE HOURLY STATE WEATHER ROUNDUP
NATIONAL WEATHER SERVICE MEMPHIS TN
600 PM CDT FRI JUL 11 2014

TNZ002-004-019-021-049-052-054-088>092-120000-
WEST TENNESSEE

CITY           SKY/WX    TMP DP  RH WIND       PRES   REMARKS
MEMPHIS INTL   PTSUNNY   82  70  66 S7        30.12F
NWS MEMPHIS      N/A     80 N/A N/A MISG        N/A
JACKSON        SUNNY     89  65  44 CALM      30.11F HX  91
DYERSBURG      MOSUNNY   91  63  38 CALM      30.11S HX  92
UNION CITY     SUNNY     88  64  45 E5        30.10S
PARIS          SUNNY     87  65  47 CALM      30.12F
LEXINGTON      SUNNY     86  66  51 CALM      30.11F
SAVANNAH       SUNNY     90  68  48 CALM      30.12  HX  94
$$

TNZ008-025-027-028-033-062-065-066-120000-
NORTH MIDDLE TENNESSEE

CITY           SKY/WX    TMP DP  RH WIND       PRES   REMARKS
NASHVILLE      MOSUNNY   92  60  34 VRB6      30.11F HX  91
DICKSON        SUNNY     86  64  48 W6        30.13F
PORTLAND       MOSUNNY   88  63  42 N6        30.12S
CLARKSVILLE    SUNNY     88  62  41 VRB5      30.11F
LEBANON        PTSUNNY   89  58  35 E7        30.10F
SMYRNA         SUNNY     96  59  29 CALM      30.11F HX  95
COOKEVILLE     SUNNY     90  61  37 CALM      30.14F
LIVINGSTON     SUNNY     86  53  32 NE3       30.16
GALLATIN       MOSUNNY   91  62  37 E3        30.12F HX  91
CROSSVILLE     SUNNY     83  56  39 N5        30.20S
$$

TNZ061-075-076-078-094-096-097-120000-
SOUTH MIDDLE TENNESSEE

CITY           SKY/WX    TMP DP  RH WIND       PRES   REMARKS
LEWISBURG      SUNNY     90  58  33 NE5       30.11F
TULLAHOMA      SUNNY     84  61  45 N6        30.15S
WINCHESTER     SUNNY     88  63  42 NE3       30.13F
MCMINNVILLE    SUNNY     88  64  45 NE7       30.14F
COLUMBIA       SUNNY     90  63  40 VRB5      30.11S HX  90
$$

TNZ017-018-042-046-047-120000-
NORTHEAST TENNESSEE

CITY           SKY/WX    TMP DP  RH WIND       PRES   REMARKS
TRI CITIES     MOSUNNY   88  53  30 CALM      30.16F
ELIZABETHTON   CLEAR     82  63  51 CALM      30.17S
$$

TNZ012-013-036-069-073-074-120000-
CENTRAL EAST TENNESSEE

CITY           SKY/WX    TMP DP  RH WIND       PRES   REMARKS
KNOXVILLE      MOSUNNY   88  60  38 N6        30.12S
OAK RIDGE      SUNNY     90  59  35 VRB3      30.14F
$$

TNZ083-085-099-120000-
SOUTHEAST TENNESSEE

CITY           SKY/WX    TMP DP  RH WIND       PRES   REMARKS
CHATTANOOGA    MOSUNNY   90  57  32 N8        30.12S
$$

SKY/WX REPORTED AS FAIR MEANS FEW OR NO CLOUDS BELOW
12 THOUSAND FEET.




USA.gov is the U.S. government's official web portal to all federal, state and local government web resources and services.